Location: Doverdale
(52.2833°N, 2.2000°W)
Time: 14:31:47
(UTC+00:00)

CZ-4 R/B - Pass Details

Date: 29 October 2020
Orbit: 532 x 598 km, 97.7° (Epoch: 28 November)

Event Time Altitude Azimuth Distance (km) Brightness Sun altitude
Rises 19:00:22 0° 181° (S) 2,693 4.8 -21.2°
Reaches altitude 10° 19:02:34 10° 189° (S) 1,798 4.0 -21.6°
Maximum altitude 19:06:16 42° 261° (W) 770 2.5 -22.1°
Drops below altitude 10° 19:09:58 10° 334° (NNW) 1,798 4.3 -22.7°
Sets 19:12:10 0° 341° (NNW) 2,692 5.2 -23.0°
